Location: Saint-Usage
(47.1052°N, 5.2587°E)
Time: 11:20:21
(UTC+01:00)

NOAA 19 - Pass Details

Date: 06 December 2021
Orbit: 841 x 860 km, 99.2° (Epoch: 23 January)

Event Time Altitude Azimuth Distance (km) Brightness Sun altitude
Rises 20:52:29 0° 216° (SW) 3,386 8.6 -40.3°
Reaches altitude 10° 20:56:03 10° 240° (WSW) 2,459 8.0 -40.9°
Maximum altitude 20:58:53 14° 272° (W) 2,176 7.9 -41.4°
Drops below altitude 10° 21:01:45 10° 304° (NW) 2,473 8.2 -41.9°
Sets 21:05:22 0° 329° (NNW) 3,418 8.8 -42.5°
